This is the latest recevied weather packets stored in our database for station/object NEWPRT. If no packets are shown the sender has not sent any weather packets the latest 10 day(s).
| Time | Temp. | Humidity | Pressure | Rain* | Wind** | Luminosity | Snow |
|---|---|---|---|---|---|---|---|
| 1778083356 | - | 62% | 1022.1 hPa | 0 mm | - | - | - |
| 1778083032 | - | 63% | 1022.3 hPa | 0 mm | - | - | - |
| 1778082710 | - | 64% | 1022.4 hPa | 0 mm | - | - | - |
| 1778082386 | - | 62% | 1021.9 hPa | 0 mm | - | - | - |
| 1778082064 | - | 62% | 1021.9 hPa | 0 mm | - | - | - |
| 1778081741 | - | 62% | 1021.8 hPa | 0 mm | - | - | - |
| 1778081418 | - | 62% | 1021.8 hPa | 0 mm | - | - | - |
| 1778081095 | - | 62% | 1021.6 hPa | 0 mm | - | - | - |
| 1778080772 | - | 63% | 1021.6 hPa | 0 mm | - | - | - |
| 1778080448 | - | 64% | 1021.6 hPa | 0 mm | - | - | - |
| 1778080125 | - | 63% | 1021.7 hPa | 0 mm | - | - | - |
| 1778079802 | - | 63% | 1021.5 hPa | 0 mm | - | - | - |
| 1778079479 | - | 63% | 1021.2 hPa | 0 mm | - | - | - |
| 1778079156 | - | 66% | 1021.7 hPa | 0 mm | - | - | - |
| 1778078833 | - | 65% | 1022 hPa | 0 mm | - | - | - |
| 1778078512 | - | 62% | 1021.6 hPa | 0 mm | - | - | - |
| 1778078188 | - | 62% | 1021.8 hPa | 0 mm | - | - | - |
| 1778077864 | - | 65% | 1021.7 hPa | 0 mm | - | - | - |
| 1778077541 | - | 65% | 1022.1 hPa | 0 mm | - | - | - |
| 1778077219 | - | 65% | 1022 hPa | 0 mm | - | - | - |
| 1778076895 | - | 65% | 1021.9 hPa | 0 mm | - | - | - |
| 1778076572 | - | 65% | 1022 hPa | 0 mm | - | - | - |
| 1778076249 | - | 65% | 1021.9 hPa | 0 mm | - | - | - |
| 1778075927 | - | 65% | 1021.8 hPa | 0 mm | - | - | - |
| 1778075606 | - | 65% | 1021.7 hPa | 0 mm | - | - | - |
* Rain latest hour (hover to see other rain measurements)
** Current wind speed in m/s (hover to see current wind gust speed)